User: anonymous
Location: Unspecified
(0.0000°N, 0.0000°E)
Time: 20:50:07
(UTC+02:00)
Language:

Cosmos 1536 - Orbit

View from above orbital plane
View from above orbital plane
View from above satellite
View from above satellite

Ground track
Ground track

The orbit data is extracted from the following two-line orbital elements,

1 14699U 84013A   14209.32156369  .00000486  00000-0  34635-4 0  1407
2 14699 082.5256 269.3354 0014157 054.7268 305.5280 15.02276077654523
Epoch (UTC): 28 July 2014 07:43:03
Eccentricity: 0.0014157
inclination: 82.5256°
perigee height: 550 km
apogee height: 570 km
right ascension of ascending node: 269.3354°
argument of perigee: 54.7268°
revolutions per day: 15.02276077
mean anomaly at epoch: 305.5280°
orbit number at epoch: 65452

The dashed part of the orbit path shows where the satellite is in the earth's shadow,  

DLR